Starlink 33937

operational
NORAD ID: 63704 Int'l Des: 2025-087 Owner: SPXS Country: US Constellation: starlink
LEOCIRCULAR

About Starlink 33937

Description loading...

Live Position

Loading 3D Globe...

Upcoming Passes

Altitude History

Altitude vs Time

uPlot chart will show altitude changes over time

Two-Line Element Set

1 63704U 25087H 26101.86999822 .00013963 00000-0 48262-3 0 9992
2 63704 53.1573 65.1532 0001518 90.0635 270.0539 15.30203101 54287
Epoch: Apr 11, 2026 • Age: 8 hours

Current Status

Altitude 480.5 km
Velocity 7.63 km/s
Sub-Earth Point 52.10°N, 107.36°W
Launch Date Apr 28, 2025
Age 0.9 years
Type internet

Technical Details

Classification Payload
Mass 575.00 kg
Dry Mass 530.00 kg
Total Mass 575.00 kg
Length 0.30 m
Diameter 4.10 m
Span 29.00 m
Shape Box + pan
Manufacturer SPXS
Bus Type Starlink V2MO
Phase Status In Orbit
Owner/State SPXS/US

Large Constellations

Loading constellations...